RYR7RR EGSS-LEAM

Flight info

Callsign RYR7RR
Flight time 2h 51m
Altitude 34000
Route NUGBO M183 SILVA Q41 SAM N63 LELNA/N0441F350 DCT NOVAN DCT NENEM P152 PPN N10 CJN L27 BLN N865 ESILA
Aircraft B738/M-SDE2E3FGHIRWXY/LB1

Departure

Time 2026-04-17 09:50
Airport London Stansted Airport (EGSS)

Arrival

Time 2026-04-17 12:42
Airport Almería Airport (LEAM)
Time Latitude Longitude Altitude Speed Heading
2026-04-17 09:33 51.89128 0.25522 348 ft 0 kts 55°
2026-04-17 09:44 51.89128 0.25521 348 ft 1 kts 55°
2026-04-17 09:45 51.89114 0.25490 357 ft 3 kts 55°
2026-04-17 09:45 51.89100 0.25472 358 ft 4 kts 338°
2026-04-17 09:45 51.89084 0.25491 355 ft 3 kts 313°
2026-04-17 09:45 51.89071 0.25513 348 ft 0 kts 313°
2026-04-17 09:47 51.89073 0.25510 348 ft 2 kts 312°
2026-04-17 09:47 51.89089 0.25480 348 ft 6 kts 312°
2026-04-17 09:47 51.89130 0.25408 351 ft 11 kts 313°
2026-04-17 09:48 51.89205 0.25336 348 ft 14 kts 19°
2026-04-17 09:48 51.89281 0.25435 350 ft 14 kts 43°
2026-04-17 09:48 51.89356 0.25523 353 ft 13 kts
2026-04-17 09:48 51.89417 0.25439 350 ft 13 kts 271°
2026-04-17 09:49 51.89436 0.25306 357 ft 13 kts 310°
2026-04-17 09:49 51.89492 0.25179 347 ft 15 kts 279°
2026-04-17 09:49 51.89481 0.24961 335 ft 25 kts 242°
2026-04-17 09:49 51.89243 0.24592 336 ft 79 kts 222°
2026-04-17 09:50 51.88680 0.23752 337 ft 137 kts 223°
2026-04-17 09:50 51.87854 0.22491 585 ft 166 kts 222°
2026-04-17 09:50 51.87088 0.21308 1787 ft 137 kts 222°
2026-04-17 09:50 51.86632 0.20591 2309 ft 138 kts 223°
2026-04-17 09:51 51.85900 0.19507 2814 ft 148 kts 223°
2026-04-17 09:51 51.85095 0.18337 3275 ft 164 kts 224°
2026-04-17 09:51 51.84234 0.17023 3771 ft 178 kts 224°
2026-04-17 09:51 51.83329 0.15596 4288 ft 187 kts 231°
2026-04-17 09:52 51.82900 0.13565 4626 ft 204 kts 273°
2026-04-17 09:52 51.83530 0.11462 5049 ft 221 kts 309°
2026-04-17 09:52 51.84800 0.09846 5400 ft 237 kts 324°
2026-04-17 09:52 51.86299 0.08513 5681 ft 259 kts 331°
2026-04-17 09:53 51.88120 0.07842 5627 ft 276 kts 356°
2026-04-17 09:53 51.90058 0.07818 5831 ft 282 kts 354°
2026-04-17 09:53 51.92014 0.07639 6651 ft 280 kts 353°
2026-04-17 09:53 51.93960 0.07380 7403 ft 281 kts 351°
2026-04-17 09:54 51.95918 0.07080 8085 ft 284 kts 349°
2026-04-17 09:54 51.97735 0.05992 8716 ft 278 kts 317°
2026-04-17 09:54 51.98842 0.03526 9432 ft 270 kts 284°
2026-04-17 09:54 51.98898 0.00503 10144 ft 268 kts 253°
2026-04-17 09:55 51.98264 -0.02381 10511 ft 281 kts 251°
2026-04-17 09:55 51.97665 -0.05526 10691 ft 302 kts 254°
2026-04-17 09:55 51.97119 -0.08936 10851 ft 322 kts 256°
2026-04-17 09:55 51.96605 -0.12535 11299 ft 331 kts 256°
2026-04-17 09:56 51.96109 -0.16205 11942 ft 334 kts 256°
2026-04-17 09:56 51.95620 -0.19898 12664 ft 336 kts 256°
2026-04-17 09:56 51.95132 -0.23616 13381 ft 338 kts 256°
2026-04-17 09:56 51.94639 -0.27368 14050 ft 342 kts 256°
2026-04-17 09:57 51.94142 -0.31154 14687 ft 345 kts 256°
2026-04-17 09:57 51.93641 -0.34959 15355 ft 347 kts 255°
2026-04-17 09:57 51.93135 -0.38792 16023 ft 349 kts 255°
2026-04-17 09:57 51.92624 -0.42649 16671 ft 352 kts 255°
2026-04-17 09:58 51.92107 -0.46546 17315 ft 355 kts 255°
2026-04-17 09:58 51.91584 -0.50467 17974 ft 358 kts 255°
2026-04-17 09:58 51.91056 -0.54424 18592 ft 360 kts 255°
2026-04-17 09:58 51.90516 -0.58454 19165 ft 362 kts 255°
2026-04-17 09:59 51.89980 -0.62448 19747 ft 364 kts 255°
2026-04-17 09:59 51.89441 -0.66456 20312 ft 365 kts 255°
2026-04-17 09:59 51.88897 -0.70484 20859 ft 367 kts 255°
2026-04-17 09:59 51.88349 -0.74532 21398 ft 369 kts 255°
2026-04-17 10:00 51.87797 -0.78607 21924 ft 371 kts 255°
2026-04-17 10:00 51.87241 -0.82699 22464 ft 373 kts 255°
2026-04-17 10:00 51.86680 -0.86811 22993 ft 375 kts 255°
2026-04-17 10:00 51.86111 -0.90937 23494 ft 377 kts 253°
2026-04-17 10:01 51.85127 -0.94837 23894 ft 376 kts 236°
2026-04-17 10:01 51.83429 -0.98045 24356 ft 377 kts 222°
2026-04-17 10:01 51.81310 -1.00513 24923 ft 377 kts 212°
2026-04-17 10:01 51.78859 -1.02122 25209 ft 388 kts 197°
2026-04-17 10:02 51.76168 -1.02917 25487 ft 396 kts 193°
2026-04-17 10:02 51.73434 -1.03563 25846 ft 399 kts 193°
2026-04-17 10:02 51.70684 -1.04197 26235 ft 400 kts 193°
2026-04-17 10:02 51.67925 -1.04868 26609 ft 402 kts 194°
2026-04-17 10:03 51.65156 -1.05574 26954 ft 404 kts 194°
2026-04-17 10:03 51.62373 -1.06297 27279 ft 406 kts 194°
2026-04-17 10:03 51.59581 -1.07283 27597 ft 406 kts 200°
2026-04-17 10:03 51.56851 -1.08481 27918 ft 407 kts 200°
2026-04-17 10:04 51.54108 -1.09686 28215 ft 410 kts 200°
2026-04-17 10:04 51.51343 -1.10880 28517 ft 413 kts 199°
2026-04-17 10:04 51.48557 -1.12069 28841 ft 415 kts 199°
2026-04-17 10:04 51.45762 -1.13261 29159 ft 416 kts 200°
2026-04-17 10:05 51.42962 -1.14469 29523 ft 417 kts 200°
2026-04-17 10:05 51.40169 -1.15675 29988 ft 415 kts 200°
2026-04-17 10:05 51.37392 -1.16870 30449 ft 412 kts 200°
2026-04-17 10:05 51.34624 -1.18058 30796 ft 412 kts 200°
2026-04-17 10:06 51.31854 -1.19239 31062 ft 413 kts 200°
2026-04-17 10:06 51.29064 -1.20427 31240 ft 416 kts 200°
2026-04-17 10:06 51.26265 -1.21615 31556 ft 416 kts 200°
2026-04-17 10:06 51.23493 -1.22790 31970 ft 413 kts 200°
2026-04-17 10:07 51.20705 -1.23971 32338 ft 412 kts 200°
2026-04-17 10:07 51.17935 -1.25141 32628 ft 412 kts 200°
2026-04-17 10:07 51.15114 -1.26325 32929 ft 412 kts 200°
2026-04-17 10:07 51.12353 -1.27478 33284 ft 411 kts 200°
2026-04-17 10:08 51.09588 -1.28631 33625 ft 410 kts 200°
2026-04-17 10:08 51.06832 -1.29781 33928 ft 410 kts 200°
2026-04-17 10:08 51.04070 -1.30933 34228 ft 410 kts 200°
2026-04-17 10:08 51.01315 -1.32081 34491 ft 409 kts 200°
2026-04-17 10:09 50.98557 -1.33228 34729 ft 409 kts 200°
2026-04-17 10:09 50.95827 -1.34435 34949 ft 407 kts 204°
2026-04-17 10:09 50.93249 -1.36170 35165 ft 401 kts 212°
2026-04-17 10:09 50.90777 -1.38199 35373 ft 401 kts 212°
2026-04-17 10:10 50.88295 -1.40228 35571 ft 402 kts 212°
2026-04-17 10:10 50.85811 -1.42239 35833 ft 400 kts 211°
2026-04-17 10:10 50.83322 -1.44237 36004 ft 401 kts 211°
2026-04-17 10:11 50.78320 -1.48229 36163 ft 405 kts 211°
2026-04-17 10:11 50.73281 -1.52233 36152 ft 405 kts 211°
2026-04-17 10:12 50.68289 -1.56181 36154 ft 399 kts 211°
2026-04-17 10:12 50.63338 -1.60088 36143 ft 397 kts 211°
2026-04-17 10:13 50.58404 -1.63976 36183 ft 396 kts 211°
2026-04-17 10:13 50.53469 -1.67856 36179 ft 397 kts 211°
2026-04-17 10:14 50.48520 -1.71739 36184 ft 398 kts 211°
2026-04-17 10:14 50.43544 -1.75633 36184 ft 400 kts 210°
2026-04-17 10:15 50.38543 -1.79537 36173 ft 403 kts 210°
2026-04-17 10:15 50.33517 -1.83451 36187 ft 404 kts 210°
2026-04-17 10:16 50.28465 -1.87376 36192 ft 406 kts 210°
2026-04-17 10:16 50.23364 -1.91329 36183 ft 407 kts 210°
2026-04-17 10:17 50.18296 -1.95248 36179 ft 406 kts 210°
2026-04-17 10:17 50.13238 -1.99149 36176 ft 405 kts 210°
2026-04-17 10:18 50.08195 -2.03030 36185 ft 404 kts 210°
2026-04-17 10:18 50.03166 -2.06894 36193 ft 403 kts 210°
2026-04-17 10:19 49.98129 -2.10694 36191 ft 403 kts 206°
2026-04-17 10:19 49.92765 -2.13392 36177 ft 406 kts 200°
2026-04-17 10:20 49.87346 -2.15843 36185 ft 406 kts 200°
2026-04-17 10:20 49.82841 -2.17897 36190 ft 406 kts 200°
2026-04-17 10:21 49.77420 -2.20397 36186 ft 407 kts 201°
2026-04-17 10:21 49.71993 -2.22912 36167 ft 408 kts 200°
2026-04-17 10:22 49.66547 -2.25434 36200 ft 409 kts 200°
2026-04-17 10:22 49.61088 -2.27957 36189 ft 410 kts 200°
2026-04-17 10:23 49.55623 -2.30475 36188 ft 410 kts 200°
2026-04-17 10:23 49.50153 -2.32990 36188 ft 410 kts 200°
2026-04-17 10:24 49.44692 -2.35495 36183 ft 409 kts 200°
2026-04-17 10:24 49.39235 -2.37993 36189 ft 409 kts 200°
2026-04-17 10:25 49.33778 -2.40485 36188 ft 409 kts 200°
2026-04-17 10:25 49.28326 -2.42969 36192 ft 409 kts 200°
2026-04-17 10:26 49.22878 -2.45446 36194 ft 408 kts 200°
2026-04-17 10:26 49.17391 -2.47934 36208 ft 409 kts 200°
2026-04-17 10:27 49.11938 -2.50401 36208 ft 409 kts 200°
2026-04-17 10:27 49.06483 -2.52864 36205 ft 409 kts 200°
2026-04-17 10:28 49.01023 -2.55323 36203 ft 409 kts 200°
2026-04-17 10:28 48.95546 -2.57785 36204 ft 411 kts 200°
2026-04-17 10:29 48.90055 -2.60247 36204 ft 412 kts 200°
2026-04-17 10:29 48.84538 -2.62715 36216 ft 414 kts 199°
2026-04-17 10:30 48.79009 -2.65182 36199 ft 415 kts 199°
2026-04-17 10:30 48.73474 -2.67645 36193 ft 414 kts 199°
2026-04-17 10:31 48.67947 -2.70100 36195 ft 413 kts 199°
2026-04-17 10:31 48.62437 -2.72542 36192 ft 412 kts 199°
2026-04-17 10:32 48.56945 -2.74970 36185 ft 411 kts 199°
2026-04-17 10:32 48.51469 -2.77386 36193 ft 409 kts 199°
2026-04-17 10:33 48.46009 -2.79790 36190 ft 409 kts 199°
2026-04-17 10:33 48.40555 -2.82186 36198 ft 408 kts 199°
2026-04-17 10:34 48.35102 -2.84576 36190 ft 408 kts 199°
2026-04-17 10:34 48.29647 -2.86962 36201 ft 409 kts 199°
2026-04-17 10:35 48.24169 -2.89352 36196 ft 410 kts 199°
2026-04-17 10:35 48.18678 -2.91742 36185 ft 412 kts 199°
2026-04-17 10:36 48.13167 -2.94136 36206 ft 413 kts 199°
2026-04-17 10:36 48.07635 -2.96534 36200 ft 414 kts 199°
2026-04-17 10:37 48.02093 -2.98930 36200 ft 415 kts 199°
2026-04-17 10:37 47.96536 -3.01327 36179 ft 415 kts 199°
2026-04-17 10:38 47.90993 -3.03712 36190 ft 414 kts 199°
2026-04-17 10:38 47.85464 -3.06087 36202 ft 413 kts 199°
2026-04-17 10:39 47.79950 -3.08449 36206 ft 412 kts 199°
2026-04-17 10:39 47.74453 -3.10800 36197 ft 411 kts 199°
2026-04-17 10:40 47.68966 -3.13142 36203 ft 410 kts 199°
2026-04-17 10:40 47.63493 -3.15472 36208 ft 409 kts 199°
2026-04-17 10:41 47.58023 -3.17796 36212 ft 409 kts 199°
2026-04-17 10:41 47.52553 -3.20115 36204 ft 409 kts 199°
2026-04-17 10:42 47.47082 -3.22429 36213 ft 409 kts 199°
2026-04-17 10:42 47.41567 -3.24757 36215 ft 410 kts 199°
2026-04-17 10:43 47.36082 -3.27067 36218 ft 410 kts 199°
2026-04-17 10:43 47.30546 -3.29393 36206 ft 411 kts 199°
2026-04-17 10:44 47.25038 -3.31703 36231 ft 411 kts 199°
2026-04-17 10:44 47.19526 -3.34009 36216 ft 412 kts 199°
2026-04-17 10:45 47.14007 -3.36313 36220 ft 412 kts 199°
2026-04-17 10:45 47.08488 -3.38612 36215 ft 412 kts 199°
2026-04-17 10:46 47.02971 -3.40905 36220 ft 412 kts 199°
2026-04-17 10:46 46.97461 -3.43191 36220 ft 411 kts 199°
2026-04-17 10:47 46.91956 -3.45470 36222 ft 411 kts 199°
2026-04-17 10:47 46.86461 -3.47739 36217 ft 410 kts 200°
2026-04-17 10:48 46.80942 -3.50013 36224 ft 409 kts 200°
2026-04-17 10:48 46.75472 -3.52264 36223 ft 408 kts 200°
2026-04-17 10:49 46.70008 -3.54506 36222 ft 408 kts 200°
2026-04-17 10:49 46.64550 -3.56742 36220 ft 407 kts 199°
2026-04-17 10:50 46.59101 -3.58969 36218 ft 407 kts 199°
2026-04-17 10:50 46.53653 -3.61192 36219 ft 406 kts 199°
2026-04-17 10:51 46.48212 -3.63407 36230 ft 406 kts 200°
2026-04-17 10:51 46.42768 -3.65619 36217 ft 406 kts 199°
2026-04-17 10:52 46.37324 -3.67826 36224 ft 406 kts 199°
2026-04-17 10:52 46.31741 -3.69260 36231 ft 413 kts 186°
2026-04-17 10:53 46.25971 -3.68464 36226 ft 420 kts 175°
2026-04-17 10:53 46.20212 -3.66964 36230 ft 421 kts 175°
2026-04-17 10:54 46.14445 -3.65468 36220 ft 421 kts 175°
2026-04-17 10:54 46.09606 -3.64240 36205 ft 422 kts 175°
2026-04-17 10:55 46.03826 -3.62793 36219 ft 422 kts 176°
2026-04-17 10:55 45.98038 -3.61353 36222 ft 423 kts 176°
2026-04-17 10:56 45.92237 -3.59913 36220 ft 423 kts 176°
2026-04-17 10:56 45.86432 -3.58474 36215 ft 423 kts 176°
2026-04-17 10:57 45.80622 -3.57037 36218 ft 424 kts 176°
2026-04-17 10:57 45.74802 -3.55601 36215 ft 425 kts 176°
2026-04-17 10:58 45.68976 -3.54166 36202 ft 425 kts 176°
2026-04-17 10:58 45.63150 -3.52734 36213 ft 425 kts 176°
2026-04-17 10:59 45.57317 -3.51304 36212 ft 425 kts 176°
2026-04-17 10:59 45.51483 -3.49876 36194 ft 425 kts 176°
2026-04-17 11:00 45.45650 -3.48451 36210 ft 425 kts 176°
2026-04-17 11:00 45.39818 -3.47030 36215 ft 425 kts 176°
2026-04-17 11:01 45.33983 -3.45611 36214 ft 426 kts 176°
2026-04-17 11:01 45.28145 -3.44194 36208 ft 425 kts 176°
2026-04-17 11:02 45.22311 -3.42781 36210 ft 425 kts 176°
2026-04-17 11:02 45.16473 -3.41371 36210 ft 426 kts 176°
2026-04-17 11:03 45.10636 -3.39963 36199 ft 425 kts 176°
2026-04-17 11:03 45.04800 -3.38558 36209 ft 425 kts 176°
2026-04-17 11:04 44.98927 -3.37148 36209 ft 425 kts 176°
2026-04-17 11:04 44.93131 -3.35759 36194 ft 425 kts 175°
2026-04-17 11:05 44.87260 -3.34354 36205 ft 425 kts 175°
2026-04-17 11:05 44.81469 -3.32972 36207 ft 425 kts 175°
2026-04-17 11:06 44.75596 -3.31573 36208 ft 425 kts 175°
2026-04-17 11:06 44.69804 -3.30197 36203 ft 425 kts 175°
2026-04-17 11:07 44.63973 -3.28813 36204 ft 425 kts 175°
2026-04-17 11:07 44.58142 -3.27433 36204 ft 425 kts 176°
2026-04-17 11:08 44.52275 -3.26047 36199 ft 425 kts 175°
2026-04-17 11:08 44.46451 -3.24673 36210 ft 424 kts 175°
2026-04-17 11:09 44.40623 -3.23302 36202 ft 425 kts 175°
2026-04-17 11:09 44.34798 -3.21934 36194 ft 424 kts 175°
2026-04-17 11:10 44.26063 -3.19887 36200 ft 424 kts 175°
2026-04-17 11:10 44.20236 -3.18525 36197 ft 425 kts 175°
2026-04-17 11:11 44.14407 -3.17166 36194 ft 425 kts 175°
2026-04-17 11:11 44.08584 -3.15770 36196 ft 427 kts 171°
2026-04-17 11:12 44.03040 -3.12584 36199 ft 438 kts 153°
2026-04-17 11:12 43.98159 -3.07387 36186 ft 444 kts 145°
2026-04-17 11:13 43.93403 -3.01904 36182 ft 444 kts 145°
2026-04-17 11:13 43.88622 -2.96480 36194 ft 444 kts 146°
2026-04-17 11:14 43.83812 -2.91093 36192 ft 445 kts 146°
2026-04-17 11:14 43.78992 -2.85711 36185 ft 445 kts 146°
2026-04-17 11:15 43.74168 -2.80335 36187 ft 445 kts 146°
2026-04-17 11:15 43.69371 -2.74897 36187 ft 446 kts 145°
2026-04-17 11:16 43.64545 -2.69416 36192 ft 446 kts 146°
2026-04-17 11:16 43.59700 -2.64065 36166 ft 446 kts 146°
2026-04-17 11:17 43.54854 -2.58738 36177 ft 446 kts 146°
2026-04-17 11:17 43.50010 -2.53408 36187 ft 446 kts 146°
2026-04-17 11:18 43.45166 -2.48080 36181 ft 446 kts 146°
2026-04-17 11:18 43.40322 -2.42761 36168 ft 446 kts 146°
2026-04-17 11:19 43.35475 -2.37450 36178 ft 445 kts 146°
2026-04-17 11:19 43.30630 -2.32153 36178 ft 445 kts 146°
2026-04-17 11:20 43.25809 -2.26894 36167 ft 446 kts 146°
2026-04-17 11:20 43.20918 -2.21568 36176 ft 446 kts 146°
2026-04-17 11:21 43.16049 -2.16278 36178 ft 447 kts 146°
2026-04-17 11:21 43.11205 -2.11023 36176 ft 448 kts 146°
2026-04-17 11:22 43.06320 -2.05734 36169 ft 448 kts 146°
2026-04-17 11:22 43.01401 -2.00406 36170 ft 448 kts 146°
2026-04-17 11:23 42.96514 -1.95119 36157 ft 448 kts 146°
2026-04-17 11:23 42.91666 -1.89889 36157 ft 447 kts 146°
2026-04-17 11:24 42.86765 -1.84603 36184 ft 445 kts 146°
2026-04-17 11:24 42.81919 -1.79368 36182 ft 443 kts 146°
2026-04-17 11:25 42.77036 -1.74285 36172 ft 438 kts 156°
2026-04-17 11:25 42.74232 -1.72904 36206 ft 424 kts 175°
2026-04-17 11:25 42.71317 -1.72720 36189 ft 417 kts 189°
2026-04-17 11:26 42.68499 -1.73477 36177 ft 411 kts 204°
2026-04-17 11:26 42.65903 -1.75061 36199 ft 409 kts 209°
2026-04-17 11:26 42.60814 -1.78573 36182 ft 412 kts 210°
2026-04-17 11:27 42.55679 -1.82091 36163 ft 415 kts 209°
2026-04-17 11:27 42.50491 -1.85572 36161 ft 417 kts 209°
2026-04-17 11:28 42.45268 -1.89054 36164 ft 419 kts 209°
2026-04-17 11:28 42.40032 -1.92543 36176 ft 420 kts 208°
2026-04-17 11:29 42.34799 -1.96032 36161 ft 419 kts 208°
2026-04-17 11:29 42.29579 -1.99512 36164 ft 417 kts 208°
2026-04-17 11:30 42.24380 -2.02972 36165 ft 416 kts 208°
2026-04-17 11:30 42.20076 -2.05826 36155 ft 414 kts 208°
2026-04-17 11:31 42.14916 -2.09241 36155 ft 412 kts 208°
2026-04-17 11:31 42.09776 -2.12635 36161 ft 411 kts 208°
2026-04-17 11:32 42.04652 -2.16014 36163 ft 410 kts 208°
2026-04-17 11:32 41.99532 -2.19384 36177 ft 410 kts 208°
2026-04-17 11:33 41.94409 -2.22752 36165 ft 410 kts 208°
2026-04-17 11:33 41.89280 -2.26117 36174 ft 411 kts 208°
2026-04-17 11:34 41.84133 -2.29488 36177 ft 413 kts 208°
2026-04-17 11:34 41.78965 -2.32867 36165 ft 414 kts 208°
2026-04-17 11:35 41.73781 -2.36250 36160 ft 415 kts 208°
2026-04-17 11:35 41.68587 -2.39633 36171 ft 415 kts 208°
2026-04-17 11:36 41.63386 -2.43014 36170 ft 416 kts 208°
2026-04-17 11:36 41.58188 -2.46389 36171 ft 415 kts 208°
2026-04-17 11:37 41.52989 -2.49759 36159 ft 415 kts 207°
2026-04-17 11:37 41.47794 -2.53114 36169 ft 415 kts 207°
2026-04-17 11:38 41.42603 -2.56452 36172 ft 414 kts 207°
2026-04-17 11:38 41.37414 -2.59783 36174 ft 414 kts 207°
2026-04-17 11:39 41.31974 -2.62265 36181 ft 417 kts 192°
2026-04-17 11:39 41.26157 -2.62564 36187 ft 421 kts 179°
2026-04-17 11:40 41.20306 -2.61966 36179 ft 422 kts 179°
2026-04-17 11:40 41.14448 -2.61384 36178 ft 422 kts 179°
2026-04-17 11:41 41.08587 -2.60847 36173 ft 422 kts 179°
2026-04-17 11:41 41.02725 -2.60323 36186 ft 422 kts 179°
2026-04-17 11:42 40.96855 -2.59798 36187 ft 423 kts 179°
2026-04-17 11:42 40.90979 -2.59273 36185 ft 424 kts 179°
2026-04-17 11:43 40.85093 -2.58747 36185 ft 424 kts 179°
2026-04-17 11:43 40.79201 -2.58221 36190 ft 425 kts 179°
2026-04-17 11:44 40.73299 -2.57695 36199 ft 425 kts 179°
2026-04-17 11:44 40.67393 -2.57170 36195 ft 426 kts 179°
2026-04-17 11:45 40.61480 -2.56645 36192 ft 426 kts 179°
2026-04-17 11:45 40.55561 -2.56121 36196 ft 426 kts 179°
2026-04-17 11:46 40.49638 -2.55597 36193 ft 426 kts 179°
2026-04-17 11:46 40.43719 -2.55074 36186 ft 426 kts 179°
2026-04-17 11:47 40.37824 -2.54955 36195 ft 421 kts 189°
2026-04-17 11:47 40.32212 -2.56871 36207 ft 416 kts 203°
2026-04-17 11:48 40.26814 -2.59638 36200 ft 416 kts 203°
2026-04-17 11:48 40.21414 -2.62403 36184 ft 417 kts 203°
2026-04-17 11:49 40.16003 -2.65133 36199 ft 417 kts 202°
2026-04-17 11:49 40.10583 -2.67845 36206 ft 417 kts 202°
2026-04-17 11:50 40.05151 -2.70554 36196 ft 418 kts 202°
2026-04-17 11:50 39.99718 -2.73259 36195 ft 418 kts 202°
2026-04-17 11:51 39.94283 -2.75962 36196 ft 418 kts 202°
2026-04-17 11:51 39.88848 -2.78660 36199 ft 418 kts 202°
2026-04-17 11:52 39.83408 -2.81356 36201 ft 418 kts 202°
2026-04-17 11:52 39.77967 -2.84048 36196 ft 418 kts 202°
2026-04-17 11:53 39.72527 -2.86736 36196 ft 418 kts 202°
2026-04-17 11:53 39.67084 -2.89420 36197 ft 419 kts 202°
2026-04-17 11:54 39.61598 -2.92121 36193 ft 419 kts 202°
2026-04-17 11:54 39.56152 -2.94800 36196 ft 419 kts 202°
2026-04-17 11:55 39.50700 -2.97487 36183 ft 419 kts 202°
2026-04-17 11:55 39.45252 -3.00170 36190 ft 419 kts 202°
2026-04-17 11:56 39.39803 -3.02846 36188 ft 419 kts 202°
2026-04-17 11:56 39.34348 -3.05502 36193 ft 419 kts 202°
2026-04-17 11:57 39.28894 -3.08145 36173 ft 419 kts 201°
2026-04-17 11:57 39.23437 -3.10787 36186 ft 418 kts 201°
2026-04-17 11:58 39.17985 -3.13425 36185 ft 418 kts 201°
2026-04-17 11:58 39.12540 -3.16056 36183 ft 418 kts 201°
2026-04-17 11:59 39.07089 -3.18686 36177 ft 418 kts 201°
2026-04-17 11:59 39.01642 -3.21309 36180 ft 418 kts 201°
2026-04-17 12:00 38.96199 -3.23929 36178 ft 418 kts 201°
2026-04-17 12:00 38.90754 -3.26553 36177 ft 418 kts 201°
2026-04-17 12:01 38.85305 -3.29177 36173 ft 418 kts 201°
2026-04-17 12:01 38.79854 -3.31797 36175 ft 418 kts 201°
2026-04-17 12:02 38.74400 -3.34413 36171 ft 419 kts 201°
2026-04-17 12:02 38.68956 -3.37020 36157 ft 413 kts 201°
2026-04-17 12:03 38.63675 -3.39544 36144 ft 394 kts 201°
2026-04-17 12:03 38.58571 -3.41982 36171 ft 395 kts 201°
2026-04-17 12:04 38.53345 -3.44475 36196 ft 406 kts 201°
2026-04-17 12:04 38.48007 -3.47016 36180 ft 411 kts 201°
2026-04-17 12:05 38.42663 -3.49555 36172 ft 409 kts 201°
2026-04-17 12:05 38.37338 -3.52082 36160 ft 407 kts 201°
2026-04-17 12:06 38.32035 -3.54594 36154 ft 406 kts 201°
2026-04-17 12:06 38.26747 -3.57096 36150 ft 405 kts 201°
2026-04-17 12:07 38.21475 -3.59587 36146 ft 404 kts 201°
2026-04-17 12:07 38.16181 -3.61950 36136 ft 404 kts 194°
2026-04-17 12:08 38.10640 -3.62649 36137 ft 405 kts 181°
2026-04-17 12:08 38.05003 -3.62635 36139 ft 405 kts 181°
2026-04-17 12:09 37.99357 -3.62638 36139 ft 406 kts 181°
2026-04-17 12:09 37.93696 -3.62672 36140 ft 407 kts 181°
2026-04-17 12:10 37.88021 -3.62717 36138 ft 408 kts 181°
2026-04-17 12:10 37.82377 -3.62762 35806 ft 399 kts 181°
2026-04-17 12:11 37.79620 -3.62784 35461 ft 395 kts 181°
2026-04-17 12:11 37.77808 -3.62798 35229 ft 393 kts 181°
2026-04-17 12:11 37.75084 -3.62820 34884 ft 390 kts 181°
2026-04-17 12:12 37.69693 -3.62864 34173 ft 386 kts 181°
2026-04-17 12:12 37.67014 -3.62886 33761 ft 384 kts 181°
2026-04-17 12:12 37.64348 -3.62907 33371 ft 382 kts 181°
2026-04-17 12:12 37.61700 -3.62927 32989 ft 380 kts 181°
2026-04-17 12:13 37.59065 -3.62947 32627 ft 377 kts 181°
2026-04-17 12:13 37.56445 -3.62967 32285 ft 375 kts 181°
2026-04-17 12:13 37.53843 -3.62987 31929 ft 373 kts 181°
2026-04-17 12:13 37.51253 -3.63007 31591 ft 371 kts 181°
2026-04-17 12:14 37.48678 -3.63027 31250 ft 369 kts 181°
2026-04-17 12:14 37.46114 -3.63047 30916 ft 368 kts 181°
2026-04-17 12:14 37.43560 -3.63063 30582 ft 366 kts 180°
2026-04-17 12:14 37.41062 -3.62530 30202 ft 366 kts 157°
2026-04-17 12:15 37.38906 -3.60867 29822 ft 365 kts 139°
2026-04-17 12:15 37.37273 -3.58422 29349 ft 366 kts 120°
2026-04-17 12:15 37.36087 -3.55610 29004 ft 363 kts 116°
2026-04-17 12:15 37.34922 -3.52682 27675 ft 387 kts 117°
2026-04-17 12:16 37.33745 -3.49705 27758 ft 371 kts 116°
2026-04-17 12:16 37.32622 -3.46789 27409 ft 370 kts 117°
2026-04-17 12:16 37.31504 -3.43898 27171 ft 366 kts 116°
2026-04-17 12:16 37.30391 -3.41043 26912 ft 363 kts 116°
2026-04-17 12:17 37.29267 -3.38197 26663 ft 365 kts 116°
2026-04-17 12:17 37.28128 -3.35338 26430 ft 369 kts 117°
2026-04-17 12:17 37.26981 -3.32473 26180 ft 365 kts 117°
2026-04-17 12:17 37.25843 -3.29636 25837 ft 363 kts 117°
2026-04-17 12:18 37.24711 -3.26815 25509 ft 361 kts 117°
2026-04-17 12:18 37.23598 -3.24002 25170 ft 359 kts 116°
2026-04-17 12:18 37.22494 -3.21197 24831 ft 358 kts 117°
2026-04-17 12:18 37.21388 -3.18404 24487 ft 357 kts 116°
2026-04-17 12:19 37.20291 -3.15622 24132 ft 356 kts 116°
2026-04-17 12:19 37.19194 -3.12841 23800 ft 355 kts 116°
2026-04-17 12:19 37.18104 -3.10072 23412 ft 353 kts 116°
2026-04-17 12:19 37.17018 -3.07318 23045 ft 352 kts 116°
2026-04-17 12:20 37.15935 -3.04580 22693 ft 349 kts 116°
2026-04-17 12:20 37.14856 -3.01862 22360 ft 347 kts 116°
2026-04-17 12:20 37.13779 -2.99161 22022 ft 346 kts 117°
2026-04-17 12:20 37.12709 -2.96475 21680 ft 343 kts 117°
2026-04-17 12:21 37.11647 -2.93808 21379 ft 341 kts 116°
2026-04-17 12:21 37.10594 -2.91151 21036 ft 340 kts 117°
2026-04-17 12:21 37.09542 -2.88510 20717 ft 338 kts 117°
2026-04-17 12:21 37.08492 -2.85879 20389 ft 337 kts 117°
2026-04-17 12:22 37.07445 -2.83258 20075 ft 336 kts 117°
2026-04-17 12:22 37.06398 -2.80643 19748 ft 335 kts 117°
2026-04-17 12:22 37.05358 -2.78040 19421 ft 334 kts 117°
2026-04-17 12:22 37.04300 -2.75455 19076 ft 334 kts 118°
2026-04-17 12:23 37.03219 -2.72885 18749 ft 334 kts 118°
2026-04-17 12:23 37.02135 -2.70316 18397 ft 333 kts 118°
2026-04-17 12:23 37.01057 -2.67755 18047 ft 332 kts 118°
2026-04-17 12:23 36.99985 -2.65205 17702 ft 330 kts 118°
2026-04-17 12:24 36.98919 -2.62669 17372 ft 329 kts 118°
2026-04-17 12:24 36.97876 -2.60136 17050 ft 327 kts 112°
2026-04-17 12:24 36.97496 -2.57377 16685 ft 324 kts 82°
2026-04-17 12:24 36.98286 -2.54810 16424 ft 317 kts 51°
2026-04-17 12:25 36.99979 -2.53162 16196 ft 308 kts 19°
2026-04-17 12:25 37.02005 -2.52349 15883 ft 307 kts 21°
2026-04-17 12:25 37.03812 -2.50946 15579 ft 306 kts 41°
2026-04-17 12:25 37.05220 -2.48958 15300 ft 305 kts 53°
2026-04-17 12:26 37.06385 -2.46743 15009 ft 304 kts 58°
2026-04-17 12:26 37.07476 -2.44477 14713 ft 303 kts 58°
2026-04-17 12:26 37.08496 -2.42167 14417 ft 303 kts 62°
2026-04-17 12:26 37.09390 -2.39797 14176 ft 300 kts 65°
2026-04-17 12:27 37.10151 -2.37382 13971 ft 296 kts 69°
2026-04-17 12:27 37.10758 -2.34922 13671 ft 295 kts 74°
2026-04-17 12:27 37.11207 -2.32415 13361 ft 295 kts 78°
2026-04-17 12:27 37.11502 -2.29876 13072 ft 294 kts 82°
2026-04-17 12:28 37.11651 -2.27329 12804 ft 292 kts 86°
2026-04-17 12:28 37.11654 -2.24793 12526 ft 291 kts 91°
2026-04-17 12:28 37.11516 -2.22263 12217 ft 291 kts 95°
2026-04-17 12:28 37.11234 -2.19755 11938 ft 290 kts 98°
2026-04-17 12:29 37.10813 -2.17289 11670 ft 289 kts 103°
2026-04-17 12:29 37.10260 -2.14871 11399 ft 288 kts 107°
2026-04-17 12:29 37.09585 -2.12508 11107 ft 288 kts 110°
2026-04-17 12:29 37.08758 -2.10223 10835 ft 288 kts 115°
2026-04-17 12:30 37.07633 -2.08163 10526 ft 289 kts 139°
2026-04-17 12:30 37.05832 -2.07090 10205 ft 291 kts 172°
2026-04-17 12:30 37.03851 -2.07343 9976 ft 287 kts 196°
2026-04-17 12:30 37.01913 -2.07929 9669 ft 286 kts 189°
2026-04-17 12:31 36.99950 -2.08152 9505 ft 280 kts 181°
2026-04-17 12:31 36.98034 -2.08109 9429 ft 271 kts 176°
2026-04-17 12:31 36.96184 -2.07955 9354 ft 262 kts 175°
2026-04-17 12:31 36.94393 -2.07771 9235 ft 255 kts 174°
2026-04-17 12:32 36.92639 -2.07715 9051 ft 252 kts 191°
2026-04-17 12:32 36.91127 -2.08728 8759 ft 252 kts 230°
2026-04-17 12:32 36.90432 -2.10694 8451 ft 250 kts 262°
2026-04-17 12:32 36.90045 -2.12779 8225 ft 247 kts 243°
2026-04-17 12:33 36.88941 -2.14429 7740 ft 254 kts 211°
2026-04-17 12:33 36.87307 -2.15136 7491 ft 248 kts 180°
2026-04-17 12:33 36.85651 -2.14723 7242 ft 243 kts 151°
2026-04-17 12:33 36.84226 -2.13608 6998 ft 241 kts 142°
2026-04-17 12:34 36.83063 -2.12144 6730 ft 238 kts 123°
2026-04-17 12:34 36.82159 -2.10430 6531 ft 235 kts 121°
2026-04-17 12:34 36.81307 -2.08698 6301 ft 234 kts 116°
2026-04-17 12:34 36.80947 -2.06745 6026 ft 234 kts 85°
2026-04-17 12:35 36.81499 -2.04837 5802 ft 235 kts 54°
2026-04-17 12:35 36.82782 -2.03584 5513 ft 239 kts 22°
2026-04-17 12:35 36.84427 -2.03356 5293 ft 242 kts 352°
2026-04-17 12:35 36.86047 -2.03915 5064 ft 240 kts 344°
2026-04-17 12:37 36.90049 -2.14047 3705 ft 202 kts 252°
2026-04-17 12:37 36.89633 -2.15723 3469 ft 199 kts 252°
2026-04-17 12:38 36.89234 -2.17339 3170 ft 190 kts 252°
2026-04-17 12:38 36.88855 -2.18882 2950 ft 183 kts 252°
2026-04-17 12:38 36.88476 -2.20416 2716 ft 187 kts 252°
2026-04-17 12:38 36.88088 -2.21987 2458 ft 190 kts 252°
2026-04-17 12:39 36.87702 -2.23550 2188 ft 187 kts 252°
2026-04-17 12:39 36.87330 -2.25070 1941 ft 178 kts 252°
2026-04-17 12:39 36.86981 -2.26476 1742 ft 163 kts 253°
2026-04-17 12:39 36.86660 -2.27794 1559 ft 156 kts 252°
2026-04-17 12:40 36.86348 -2.29048 1340 ft 152 kts 251°
2026-04-17 12:40 36.86048 -2.30315 1202 ft 148 kts 251°
2026-04-17 12:40 36.85738 -2.31533 950 ft 147 kts 252°
2026-04-17 12:40 36.85432 -2.32725 609 ft 139 kts 251°
2026-04-17 12:41 36.85164 -2.33872 353 ft 140 kts 251°
2026-04-17 12:41 36.84872 -2.35051 169 ft 142 kts 252°
2026-04-17 12:41 36.84598 -2.36180 65 ft 124 kts 254°
2026-04-17 12:41 36.84378 -2.37076 56 ft 88 kts 253°
2026-04-17 12:42 36.84243 -2.37626 61 ft 45 kts 253°
2026-04-17 12:42 36.84198 -2.37848 58 ft 22 kts 266°
2026-04-17 12:42 36.84212 -2.38104 59 ft 26 kts 281°
2026-04-17 12:42 36.84267 -2.38190 64 ft 10 kts 23°
2026-04-17 12:43 36.84298 -2.38116 59 ft 15 kts 73°
2026-04-17 12:43 36.84338 -2.37960 58 ft 20 kts 72°
2026-04-17 12:43 36.84446 -2.37918 67 ft 13 kts 355°
2026-04-17 12:43 36.84451 -2.37919 67 ft 0 kts 358°
2026-04-17 12:44 36.84472 -2.37904 62 ft 9 kts 44°
2026-04-17 12:44 36.84491 -2.37850 68 ft 0 kts 72°
2026-04-17 12:44 36.84507 -2.37855 63 ft 5 kts 330°
2026-04-17 12:45 36.84541 -2.37864 65 ft 5 kts 29°
2026-04-17 12:45 36.84544 -2.37841 70 ft 0 kts 101°